Hourly Weather Tibissa

Today, 15 July, Wednesday

Time Temperature Precipitation Wind Pressure Humidity
00:00 +24°C° 0 mm 2 mps 685 mmHg 62%
01:00 +25°C° 0 mm 1 mps 685 mmHg 59%
02:00 +24°C° 0 mm 1 mps 685 mmHg 61%
03:00 +24°C° 0 mm 1 mps 685 mmHg 63%
04:00 +23°C° 0 mm 1 mps 685 mmHg 64%
05:00 +24°C° 0 mm 1 mps 685 mmHg 63%
06:00 +24°C° 0 mm 1 mps 686 mmHg 61%
07:00 +24°C° 0 mm 2 mps 686 mmHg 59%
08:00 +26°C° 0 mm 2 mps 686 mmHg 52%
09:00 +27°C° 0 mm 2 mps 687 mmHg 45%
10:00 +29°C° 0 mm 3 mps 687 mmHg 38%
11:00 +30°C° 0 mm 4 mps 687 mmHg 34%
12:00 +32°C° 0 mm 5 mps 687 mmHg 30%
13:00 +34°C° 0 mm 5 mps 687 mmHg 27%
14:00 +34°C° 0 mm 6 mps 687 mmHg 25%
15:00 +35°C° 0 mm 6 mps 687 mmHg 24%
16:00 +35°C° 0 mm 6 mps 686 mmHg 23%
17:00 +34°C° 0 mm 6 mps 686 mmHg 29%
18:00 +32°C° 0 mm 6 mps 686 mmHg 34%
19:00 +30°C° 0 mm 5 mps 686 mmHg 40%
20:00 +28°C° 0 mm 5 mps 686 mmHg 48%
21:00 +27°C° 0 mm 5 mps 687 mmHg 55%
22:00 +25°C° 0 mm 5 mps 687 mmHg 63%
23:00 +25°C° 0 mm 4 mps 687 mmHg 65%

Tomorrow, 16 July, Thursday

Time Temperature Precipitation Wind Pressure Humidity
00:00 +24°C° 0 mm 3 mps 687 mmHg 67%
01:00 +24°C° 0 mm 2 mps 687 mmHg 68%
02:00 +23°C° 0 mm 2 mps 686 mmHg 71%
03:00 +23°C° 0 mm 2 mps 686 mmHg 73%
04:00 +23°C° 0 mm 1 mps 686 mmHg 75%
05:00 +23°C° 0 mm 1 mps 686 mmHg 74%
06:00 +23°C° 0 mm 2 mps 686 mmHg 74%
07:00 +23°C° 0 mm 2 mps 686 mmHg 73%
08:00 +24°C° 0 mm 2 mps 687 mmHg 66%
09:00 +26°C° 0 mm 2 mps 687 mmHg 59%
10:00 +27°C° 0 mm 2 mps 688 mmHg 52%
11:00 +29°C° 0 mm 2 mps 688 mmHg 47%
12:00 +30°C° 0 mm 2 mps 688 mmHg 42%
13:00 +31°C° 0 mm 2 mps 688 mmHg 37%
14:00 +32°C° 0 mm 2 mps 687 mmHg 36%
15:00 +33°C° 0 mm 3 mps 687 mmHg 36%
16:00 +34°C° 0 mm 4 mps 687 mmHg 35%
17:00 +32°C° 0.9 mm 4 mps 687 mmHg 43%
18:00 +29°C° 0.9 mm 4 mps 686 mmHg 50%
19:00 +27°C° 0.9 mm 3 mps 686 mmHg 58%
20:00 +26°C° 0.1 mm 3 mps 686 mmHg 58%
21:00 +26°C° 0.1 mm 4 mps 686 mmHg 58%
22:00 +25°C° 0.1 mm 4 mps 687 mmHg 57%
23:00 +25°C° 0 mm 3 mps 686 mmHg 58%

Day after tomorrow, 17 July, Friday

Time Temperature Precipitation Wind Pressure Humidity
00:00 +24°C° 0 mm 3 mps 686 mmHg 59%
01:00 +24°C° 0 mm 2 mps 686 mmHg 60%
02:00 +23°C° 0 mm 2 mps 685 mmHg 61%
03:00 +23°C° 0 mm 2 mps 685 mmHg 62%
04:00 +22°C° 0 mm 1 mps 685 mmHg 63%
05:00 +22°C° 0 mm 1 mps 685 mmHg 63%
06:00 +22°C° 0 mm 1 mps 685 mmHg 63%
07:00 +22°C° 0 mm 1 mps 685 mmHg 62%
08:00 +23°C° 0 mm 1 mps 686 mmHg 58%
09:00 +25°C° 0 mm 2 mps 686 mmHg 55%
10:00 +26°C° 0 mm 2 mps 686 mmHg 51%
11:00 +27°C° 0 mm 3 mps 686 mmHg 47%
12:00 +28°C° 0 mm 3 mps 686 mmHg 42%
13:00 +30°C° 0 mm 3 mps 686 mmHg 38%
14:00 +30°C° 0 mm 4 mps 686 mmHg 35%
15:00 +32°C° 0 mm 4 mps 686 mmHg 32%
16:00 +33°C° 0 mm 5 mps 685 mmHg 29%
17:00 +30°C° 0 mm 6 mps 685 mmHg 33%
18:00 +29°C° 0 mm 6 mps 685 mmHg 37%
19:00 +28°C° 0 mm 7 mps 685 mmHg 41%
20:00 +27°C° 0 mm 6 mps 685 mmHg 46%
21:00 +25°C° 0 mm 4 mps 685 mmHg 51%
22:00 +24°C° 0 mm 3 mps 685 mmHg 55%
23:00 +24°C° 0 mm 3 mps 685 mmHg 57%

18 July, Saturday

Time Temperature Precipitation Wind Pressure Humidity
00:00 +23°C° 0 mm 2 mps 685 mmHg 58%
01:00 +23°C° 0 mm 2 mps 685 mmHg 59%
02:00 +23°C° 0 mm 2 mps 685 mmHg 61%
03:00 +21°C° 0 mm 2 mps 685 mmHg 62%
04:00 +21°C° 0 mm 2 mps 684 mmHg 64%
05:00 +21°C° 0 mm 2 mps 684 mmHg 64%
06:00 +20°C° 0 mm 2 mps 685 mmHg 64%
07:00 +20°C° 0 mm 3 mps 685 mmHg 64%
08:00 +21°C° 0 mm 3 mps 685 mmHg 58%
09:00 +24°C° 0 mm 3 mps 686 mmHg 52%
10:00 +25°C° 0 mm 4 mps 686 mmHg 46%
11:00 +26°C° 0 mm 4 mps 686 mmHg 42%
12:00 +27°C° 0 mm 5 mps 686 mmHg 37%
13:00 +29°C° 0 mm 5 mps 686 mmHg 33%
14:00 +29°C° 0 mm 6 mps 686 mmHg 30%
15:00 +30°C° 0 mm 6 mps 686 mmHg 27%
16:00 +32°C° 0 mm 6 mps 685 mmHg 25%
17:00 +30°C° 0 mm 6 mps 685 mmHg 28%
18:00 +29°C° 0 mm 6 mps 685 mmHg 31%
19:00 +28°C° 0 mm 6 mps 685 mmHg 34%
20:00 +27°C° 0 mm 5 mps 685 mmHg 43%
21:00 +25°C° 0 mm 4 mps 686 mmHg 52%
22:00 +22°C° 0 mm 3 mps 686 mmHg 61%
23:00 +22°C° 0 mm 3 mps 686 mmHg 63%

19 July, Sunday

Time Temperature Precipitation Wind Pressure Humidity
00:00 +23°C° 0 mm 2 mps 685 mmHg 65%
01:00 +22°C° 0 mm 1 mps 685 mmHg 67%
02:00 +22°C° 0 mm 1 mps 685 mmHg 68%
03:00 +21°C° 0 mm 1 mps 685 mmHg 70%
04:00 +21°C° 0 mm 1 mps 685 mmHg 72%
05:00 +21°C° 0 mm 1 mps 685 mmHg 70%
06:00 +21°C° 0 mm 1 mps 685 mmHg 67%
07:00 +21°C° 0 mm 1 mps 686 mmHg 65%
08:00 +23°C° 0 mm 1 mps 686 mmHg 56%
09:00 +24°C° 0 mm 2 mps 687 mmHg 48%
10:00 +26°C° 0 mm 2 mps 687 mmHg 39%
11:00 +27°C° 0 mm 3 mps 687 mmHg 35%
12:00 +29°C° 0 mm 3 mps 687 mmHg 31%
13:00 +30°C° 0 mm 4 mps 687 mmHg 28%
14:00 +32°C° 0 mm 4 mps 687 mmHg 25%
15:00 +32°C° 0 mm 4 mps 687 mmHg 23%
16:00 +33°C° 0 mm 4 mps 687 mmHg 21%
17:00 +32°C° 0 mm 4 mps 687 mmHg 21%
18:00 +32°C° 0 mm 5 mps 687 mmHg 22%
19:00 +30°C° 0 mm 5 mps 687 mmHg 23%
20:00 +29°C° 0 mm 5 mps 687 mmHg 31%
21:00 +27°C° 0 mm 4 mps 687 mmHg 38%
22:00 +26°C° 0 mm 4 mps 687 mmHg 46%
23:00 +25°C° 0 mm 3 mps 687 mmHg 53%

20 July, Monday

Time Temperature Precipitation Wind Pressure Humidity
00:00 +24°C° 0 mm 2 mps 687 mmHg 59%
01:00 +23°C° 0 mm 2 mps 687 mmHg 66%
02:00 +23°C° 0 mm 1 mps 686 mmHg 69%
03:00 +22°C° 0 mm 1 mps 686 mmHg 72%
04:00 +20°C° 0 mm 0 mps 686 mmHg 75%
05:00 +20°C° 0 mm 0 mps 686 mmHg 74%
06:00 +20°C° 0 mm 0 mps 686 mmHg 72%
07:00 +21°C° 0 mm 0 mps 687 mmHg 70%
08:00 +22°C° 0 mm 0 mps 687 mmHg 61%
09:00 +24°C° 0 mm 0 mps 688 mmHg 51%
10:00 +27°C° 0 mm 1 mps 688 mmHg 42%
11:00 +29°C° 0 mm 1 mps 688 mmHg 35%
12:00 +30°C° 0 mm 2 mps 688 mmHg 29%
13:00 +33°C° 0 mm 3 mps 688 mmHg 23%
14:00 +33°C° 0 mm 3 mps 688 mmHg 21%
15:00 +34°C° 0 mm 3 mps 688 mmHg 19%
16:00 +34°C° 0 mm 3 mps 687 mmHg 17%
17:00 +34°C° 0 mm 3 mps 687 mmHg 17%
18:00 +34°C° 0 mm 4 mps 688 mmHg 18%
19:00 +33°C° 0 mm 4 mps 688 mmHg 18%
20:00 +32°C° 0 mm 4 mps 688 mmHg 25%
21:00 +29°C° 0 mm 4 mps 688 mmHg 32%
22:00 +28°C° 0 mm 4 mps 688 mmHg 40%
23:00 +27°C° 0 mm 3 mps 688 mmHg 46%
Show more